sat.trackr.live / text

‹ back to catalog

STARLINK-11466 [DTC]

NORAD 62220 · 2024-231C

PAYLOAD ACTIVE UNKNOWN

§ Identity

Operator
Country
US
Launch date
2024-12-05
Launch site
AFWTR
Launch vehicle
Mass (kg)
RCS (m²)

Purposes: comms

External: N2YO · Heavens-Above · Gunter

§ Orbital elements

Epoch: 2026-09-21T13:34:55.050816Z

Period
91.73 min
Inclination
53.1565°
Eccentricity
0.0001224
Mean motion
15.69762960 rev/d
Perigee alt
358.8 km
Apogee alt
360.4 km
Semi-major
6,737.7 km
B*
9.8680e-4
RAAN
215.8460°
Arg perigee
69.2203°
Mean anomaly
290.8946°
Rev number
10,417

§ Raw data

STARLINK-11466 [DTC]1 62220U 24231C   26264.56591494  .00120984  00000+0  98680-3 0  99942 62220  53.1565 215.8460 0001224  69.2203 290.8946 15.69762960104178

JSON: /api/v1/satellites/62220 · /tle

For live sub-satellite position, see the globe view (requires WebGL).

§ Visibility from observer

Set your observer location to see the next 7 days of passes ≥ 10°. The values pass through the URL so the page stays shareable.

No JS? Fill the form by hand. The geolocation button needs JavaScript.